Flag for Greece Weather past 2 weeks in Thessaloniki, Greece

Now
72 °F

Clear.


Feels Like: 74 °F
Forecast: 70 / 92 °F
Wind: 6 mph from East

Location: Thessaloniki Airport

Current Time: Jul 25, 2014 at 2:48:33 AM

Latest Report: Jul 25, 2014 at 1:50 AM


Visibility: 10 mi

Pressure: 29.80 "Hg

Humidity: 73%

Dew point: 63 °F

Location of ThessalonikiLocation

Historic Weather in Thessaloniki — Graph

°F

Thessaloniki temperature yesterday

Maximum temperature yesterday: 90 °F (at 4:50 PM)
Minimum temperature yesterday: 64 °F (at 6:20 AM)
Average temperature yesterday: 78 °F

Past Weeks' High & Low Weather Summary

 TemperatureHumidityPressure
High91 °F (Jul 20, 4:50 PM)94% (Jul 15, 6:20 AM)29.95 "Hg (Jul 15, 6:20 AM)
Low64 °F (Jul 13, 6:20 AM)21% (Jul 10, 7:20 PM)29.59 "Hg (Jul 10, 5:50 PM)
Average78 °F55%29.80 "Hg
* Reported Jul 10 1:20 AM — Jul 25 1:20 AM, Thessaloniki, Weather by CustomWeather, © 2014

Note: Actual official high and low records may vary slightly from our data, if they occured in-between our weather recording intervals... More about our weather records

Advertising

Thessaloniki weather history for previous 24 hours

 ConditionsComfort  
Time TempWeatherWind HumidityBarometerVisibility
1:20 AM
Jul 25
72 °FClear.5 mph73%29.80 "Hg10 mi
12:50 AM73 °FClear.6 mph69%29.80 "Hg10 mi
12:20 AM73 °FClear.5 mph69%29.80 "Hg10 mi
11:50 PM
Jul 24
75 °FClear.6 mph61%29.80 "Hg10 mi
11:20 PM77 °FClear.6 mph57%29.80 "Hg10 mi
10:50 PM79 °FClear.6 mph51%29.80 "Hg10 mi
10:20 PM79 °FClear.5 mph51%29.80 "Hg10 mi
9:50 PM81 °FSunny.6 mph51%29.77 "Hg10 mi
9:20 PM84 °FSunny.7 mph45%29.77 "Hg10 mi
8:50 PM84 °FSunny.6 mph45%29.74 "Hg10 mi
8:20 PM86 °FPassing clouds.9 mph49%29.74 "HgN/A
7:50 PM86 °FPassing clouds.10 mph43%29.74 "HgN/A
7:20 PM86 °FPassing clouds.9 mph49%29.74 "HgN/A
6:50 PM86 °FPassing clouds.10 mph49%29.74 "HgN/A
6:20 PM88 °FPassing clouds.10 mph46%29.74 "HgN/A
5:50 PM90 °FPassing clouds.10 mph41%29.74 "HgN/A
5:20 PM90 °FPassing clouds.10 mph38%29.74 "HgN/A
4:50 PM90 °FScattered clouds.10 mph38%29.74 "HgN/A
4:20 PM88 °FScattered clouds.10 mph40%29.77 "HgN/A
3:50 PM88 °FPassing clouds.9 mph40%29.77 "HgN/A
3:20 PM88 °FPassing clouds.10 mph43%29.77 "HgN/A
2:50 PM88 °FPassing clouds.9 mph40%29.77 "HgN/A
2:20 PM88 °FPassing clouds.10 mph40%29.77 "HgN/A
1:50 PM86 °FPassing clouds.10 mph49%29.77 "HgN/A
1:20 PM84 °FPassing clouds.12 mph51%29.77 "HgN/A
12:50 PM84 °FPassing clouds.9 mph48%29.77 "HgN/A
12:20 PM82 °FPassing clouds.9 mph51%29.77 "HgN/A
11:50 AM82 °FPassing clouds.12 mph48%29.77 "HgN/A
11:20 AM82 °FPassing clouds.14 mph51%29.77 "HgN/A
10:50 AM81 °FSunny.13 mph54%29.77 "Hg10 mi
10:20 AM81 °FSunny.12 mph54%29.77 "Hg10 mi
9:50 AM79 °FSunny.9 mph58%29.77 "Hg10 mi
9:20 AM77 °FSunny.12 mph61%29.77 "Hg10 mi
8:50 AM75 °FSunny.10 mph65%29.77 "Hg10 mi
8:20 AM75 °FSunny.10 mph65%29.74 "Hg10 mi
7:50 AM72 °FSunny.No wind83%29.74 "Hg10 mi
7:20 AM68 °FSunny.2 mph88%29.74 "Hg10 mi
6:50 AM66 °FPassing clouds.3 mph88%29.74 "HgN/A
6:20 AM64 °FPassing clouds.3 mph94%29.74 "HgN/A
5:50 AM66 °FPassing clouds.3 mph88%29.74 "HgN/A
5:20 AM68 °FPassing clouds.3 mph83%29.74 "HgN/A
4:50 AM68 °FPassing clouds.2 mph88%29.74 "HgN/A
4:20 AM66 °FPassing clouds.2 mph94%29.74 "HgN/A
3:50 AM66 °FPassing clouds.2 mph94%29.74 "HgN/A
3:20 AM68 °FPassing clouds.3 mph88%29.74 "HgN/A
2:50 AM68 °FPassing clouds.2 mph88%29.74 "HgN/A
2:20 AM68 °FPassing clouds.6 mph94%29.74 "HgN/A
Weather by CustomWeather, © 2014

See weather overviewHow to use our weather pages